Location: ??? ???
(33.4974°N, 35.4618°E)
Time: 18:22:51
(UTC+00:00)

ATLAS 2AS CENTAUR R/B - Pass Details

Date: 29 October 2020
Orbit: 939 x 1273 km, 63.7° (Epoch: 23 November)

Event Time Altitude Azimuth Distance (km) Brightness Sun altitude
Rises 16:30:40 0° 339° (NNW) 4,111 6.0 -21.8°
Reaches altitude 10° 16:34:18 10° 355° (N) 3,089 5.1 -22.5°
Enters shadow 16:38:50 21° 32° (NNE) 2,280 4.1 -23.5°
